Regional Weather Roundup
Issued by NWS Goodland, KS

Home | Current Version | Previous Version | Graphics & Text | Print | Product List | Glossary On
Versions: 1 2 3 4 5 6 7 8 9 10 11 12 13 14 15 16 17 18 19 20 21 22 23 24 25 26 27 28 29 30 31 32 33 34 35 36 37 38 39 40 41 42 43 44 45 46 47 48 49 50
000
ASUS43 KGLD 041808
RWRGLD

GOODLAND FORECAST AREA HOURLY WEATHER ROUNDUP
NATIONAL WEATHER SERVICE GOODLAND KS
1200 PM MDT TUE AUG 04 2015

...OFFICIAL OBSERVATIONS...

CITY           SKY/WX    TMP DP  RH WIND       PRES   REMARKS
GOODLAND KS    MOSUNNY   84  61  45 S10G17    29.93F
HILL CITY KS   PTSUNNY   88  66  48 SE10      29.91F
IMPERIAL NEB   CLOUDY    72  63  73 SE12      29.98R
MCCOOK NEB     CLOUDY    68  63  84 E23G31    29.93F
AKRON CO       SUNNY     84  48  28 NW18      30.02F
BURLINGTON CO  SUNNY     82  58  43 NW12      29.99S
LIMON CO       SUNNY     82  46  28 N12G18    30.08F
$$

...UNOFFICIAL OBSERVATIONS...

CITY           SKY/WX    TMP DP  RH WIND       PRES   REMARKS
COLBY KS       SUNNY     88  64  45 SE14      29.93F
NORTON KS      CLOUDY    75  66  73 E14G21    29.93S
SHARON SPRINGS   N/A     88  60  38 SW8G15      N/A
KIT CARSON CO    N/A     87  57  36 MISG        N/A
YUMA CO          N/A     82  60  47 CALM        N/A
$$



USA.gov is the U.S. government's official web portal to all federal, state and local government web resources and services.